Temperature
23 22 22 23 29 29 28 28 28 27 26 25 25 25 25 24 24 22 20 19 19 18 18 18 18 18 18 18 18 18 18 18 18 18 18 18 18 18 18 18 18 18 18 18 18 18 18 18 18
22 22 22 27 31 28 27 28 27 27 26 25 25 24 24 23 22 20 19 18 19 18 18 17 18 18 18 18 18 18 18 18 18 18 18 18 18 18 18 18 18 18 18 18 18 18 18 18 18
22 22 27 31 30 28 27 28 27 26 25 25 25 24 24 22 21 20 19 19 19 18 18 18 18 18 18 18 18 18 18 18 18 18 18 18 18 18 18 18 18 18 18 17 18 18 18 18 17
23 25 29 31 29 29 28 28 27 27 26 25 25 24 22 21 21 20 19 19 19 19 18 18 18 18 18 18 18 18 18 18 18 18 18 18 18 18 18 18 18 18 18 18 18 18 18 18 17
24 29 32 30 29 29 29 28 27 28 27 25 25 24 22 20 20 19 19 19 19 19 18 18 18 18 18 18 18 18 18 18 18 18 18 17 18 17 18 18 18 18 18 18 17 17 17 17 18
29 32 32 30 29 29 29 28 28 27 26 25 25 25 22 20 20 19 19 19 19 19 19 18 18 18 18 18 18 18 18 18 18 18 18 18 17 18 18 18 18 18 18 18 18 17 17 17 17
31 32 31 31 30 29 29 28 28 28 27 26 25 25 22 21 20 19 19 19 19 19 19 18 18 18 18 18 18 18 18 18 18 18 18 18 17 18 18 18 18 18 18 18 18 17 17 17 18
30 33 32 31 30 29 29 28 27 27 26 25 25 25 23 21 20 19 19 19 18 18 19 18 18 18 18 17 18 18 18 18 18 18 18 18 18 18 18 17 17 17 18 18 18 17 17 18 18
30 33 32 31 31 30 29 28 27 26 26 25 25 25 23 20 20 20 19 19 18 18 18 18 18 18 18 18 17 18 18 18 18 18 18 17 17 17 17 17 18 17 17 18 17 17 18 18 18
32 33 32 32 32 31 29 29 28 27 27 25 24 23 21 20 20 20 20 20 19 19 18 18 18 18 18 18 17 17 17 17 17 17 17 17 17 17 17 17 17 17 17 18 18 17 17 17 17
33 33 32 32 31 31 30 29 28 28 28 27 25 23 21 21 21 21 21 20 20 19 18 18 18 18 18 18 18 17 17 17 17 17 17 17 17 17 17 17 17 17 17 17 17 17 17 17 17
33 33 32 32 31 31 30 29 29 28 28 26 25 23 22 22 22 21 21 21 20 19 19 18 18 18 18 18 18 18 18 17 17 17 17 17 17 17 17 17 17 17 17 17 17 17 17 17 17
33 32 32 31 31 30 30 30 29 28 26 25 24 23 23 22 22 21 21 20 20 19 19 18 18 18 18 18 18 18 17 18 18 17 17 17 17 17 17 17 17 17 17 17 17 17 17 17 17
33 32 32 31 31 30 30 30 29 28 26 25 24 24 23 23 22 21 21 20 20 19 19 19 19 18 18 18 18 18 18 18 17 17 17 17 17 17 17 17 17 17 17 17 17 17 17 17 17
32 32 32 31 31 31 30 30 30 28 26 25 25 24 24 23 22 22 21 20 20 19 19 19 19 19 19 18 18 18 18 18 18 18 17 17 17 17 17 17 17 17 17 17 17 17 17 17 17
33 33 32 32 31 31 31 31 30 27 27 26 25 24 24 23 23 22 21 21 20 20 19 19 19 19 19 18 18 18 18 18 18 18 18 18 17 18 18 17 17 17 17 17 17 17 17 17 17
33 33 32 32 32 31 31 31 30 28 27 27 26 25 24 23 23 22 22 21 21 20 20 20 19 19 19 19 19 18 18 18 18 18 18 18 18 18 17 17 17 17 17 17 17 17 17 17 17
32 33 32 32 32 32 31 31 30 28 28 28 26 26 25 24 23 23 22 21 21 21 20 20 20 19 19 19 19 18 18 18 18 18 18 18 18 17 17 17 17 17 17 17 17 17 17 17 17
33 33 32 32 32 32 31 31 31 29 28 28 27 26 25 25 24 23 22 22 21 21 20 20 20 20 19 19 19 18 18 18 18 18 18 18 18 17 18 17 17 17 17 17 17 17 17 17 17
32 32 32 32 32 31 31 31 31 30 29 28 27 27 26 25 24 23 22 22 21 21 21 21 20 20 20 19 19 19 19 18 18 18 18 18 18 17 18 18 17 17 17 17 17 17 17 17 17
32 32 32 32 31 31 31 31 31 30 29 28 27 27 27 26 25 24 23 22 22 21 21 21 21 20 20 19 19 19 19 18 18 18 18 18 18 18 18 17 17 17 17 17 17 17 17 17 17
32 33 32 32 31 32 31 31 31 31 30 29 28 27 27 26 25 24 23 22 22 22 22 21 21 21 20 20 19 19 19 19 18 18 18 18 18 18 18 18 18 18 17 17 17 17 17 17 17
32 32 32 32 31 31 31 31 32 31 30 30 29 28 27 26 26 25 24 23 23 22 22 21 21 21 20 20 20 19 19 19 19 18 18 18 18 18 18 18 18 18 17 17 17 17 17 17 17
32 31 31 31 32 30 31 31 31 32 31 31 30 28 27 27 26 25 24 23 23 22 22 22 21 21 21 20 20 19 19 19 19 18 18 18 18 18 18 18 18 18 18 18 18 17 17 17 17
31 31 30 30 30 30 31 31 31 32 31 31 30 29 27 26 26 25 24 23 22 22 22 21 21 21 21 20 20 19 19 19 19 19 18 18 18 18 18 18 18 18 18 18 17 17 17 17 17
31 31 30 29 30 31 30 30 31 31 30 29 29 29 27 27 26 25 24 23 22 22 22 21 21 21 21 20 20 20 20 19 19 19 19 18 18 18 18 18 18 18 18 17 17 17 17 17 17
31 31 32 31 31 30 31 31 31 31 30 30 29 28 27 26 25 25 24 23 22 22 22 21 21 21 21 21 20 20 20 19 19 19 19 18 18 18 18 18 18 18 17 17 17 17 17 17 17
31 32 31 31 29 29 30 30 31 30 30 30 29 28 26 26 25 24 23 23 22 22 21 21 21 21 21 21 20 20 20 20 20 19 19 18 18 18 18 18 17 17 17 17 17 17 17 17 17
30 30 30 31 30 29 29 31 32 31 30 29 28 27 26 25 24 23 23 22 22 21 21 21 21 21 21 21 20 20 20 20 19 19 19 18 18 18 18 18 18 17 17 17 17 17 17 17 17
31 30 30 29 29 29 30 30 30 30 30 29 28 26 25 24 23 23 22 21 21 21 21 20 20 20 20 20 20 20 20 19 19 19 19 19 18 18 18 18 18 17 17 17 17 17 17 17 17
Wind_Speed
14 10 6 4 2 9 14 11 10 9 7 8 8 6 7 9 8 8 7 7 7 7 10 11 10 10 10 11 11 12 13 13 13 13 13 13 13 13 13 13 13 14 14 15 16 16 16 16 16
10 7 5 3 6 12 13 11 11 10 8 7 7 7 9 9 9 9 8 8 8 9 10 11 11 11 11 11 11 12 12 13 13 13 13 12 13 12 12 12 12 13 14 14 15 16 15 15 15
8 6 3 4 13 13 12 10 11 10 7 5 6 7 7 7 8 7 9 9 9 9 10 13 11 11 11 11 11 11 12 12 12 12 12 11 12 12 11 11 12 13 14 14 15 16 15 15 15
5 4 1 9 15 14 11 9 9 8 8 6 6 8 8 7 6 9 11 9 10 9 11 14 10 11 11 11 11 11 11 11 11 11 11 11 11 11 10 11 12 13 13 14 15 15 15 14 14
5 2 6 13 14 12 10 8 6 7 7 7 8 11 10 8 10 12 10 9 9 9 11 13 11 11 11 10 10 10 11 11 11 10 10 10 10 10 11 12 12 13 13 14 14 14 14 13 13
3 1 8 12 13 10 9 7 7 9 10 9 10 12 9 9 10 10 10 9 9 9 10 13 11 11 10 10 10 10 10 10 11 10 10 10 10 10 12 12 13 13 13 13 13 13 13 12 11
3 6 10 11 11 10 7 6 6 8 9 8 8 10 9 10 10 10 9 8 8 8 9 9 11 11 11 10 9 9 10 10 10 9 9 10 9 10 12 12 12 12 12 12 12 12 12 11 10
3 2 9 10 9 10 8 6 6 7 9 8 5 7 10 12 11 10 10 8 7 7 7 7 8 9 10 11 10 9 9 9 9 9 9 9 9 10 11 11 12 11 11 11 11 11 11 10 9
3 3 9 9 8 8 8 8 7 6 9 7 5 7 13 15 12 11 10 8 8 6 5 6 7 7 7 9 10 9 9 8 8 9 9 8 8 9 10 11 11 10 10 10 10 10 10 9 9
1 6 9 7 7 8 8 7 8 7 9 8 9 12 15 14 12 11 10 9 9 8 6 5 5 6 6 7 8 6 7 7 5 6 7 7 6 6 8 11 9 9 9 9 8 9 10 8 8
1 5 6 5 6 7 9 8 7 7 7 8 12 16 16 14 12 10 9 8 8 8 6 6 5 5 5 5 5 4 5 5 5 6 5 5 5 6 6 7 8 7 7 6 8 8 6 5 3
2 4 3 4 6 7 8 8 6 4 6 8 13 17 16 14 11 10 9 8 8 7 7 6 6 5 4 3 4 4 4 4 4 5 4 4 3 3 4 3 4 4 4 4 3 3 4 3 3
3 4 4 5 6 7 7 7 6 6 7 11 15 16 15 13 11 9 8 7 7 7 7 6 5 5 4 3 2 3 3 3 4 3 4 3 3 3 3 3 3 3 4 5 3 3 3 3 3
3 5 6 6 7 7 7 7 6 7 10 13 15 15 14 12 11 10 9 8 8 8 7 7 6 6 5 4 3 3 3 3 3 3 3 3 2 3 3 3 3 3 3 3 3 3 3 3 2
5 6 7 6 6 6 7 6 6 10 12 14 14 13 13 12 11 10 10 9 9 9 8 8 7 7 6 5 5 4 3 4 3 3 3 3 3 3 2 2 3 3 3 4 3 3 3 3 3
7 7 5 6 6 6 8 4 9 12 14 14 14 13 12 12 11 10 10 9 9 9 9 8 7 7 7 5 5 4 4 4 3 3 3 4 3 3 3 2 3 3 3 3 3 3 3 2 2
9 7 5 6 7 6 8 2 9 13 13 13 14 13 13 12 12 11 11 11 10 10 9 9 8 8 7 6 5 4 4 4 4 4 4 4 4 4 4 3 2 3 3 3 3 3 2 2 1
7 7 5 5 7 8 8 5 9 12 13 13 14 13 13 13 13 12 11 11 10 10 10 10 9 9 8 6 5 4 5 4 4 4 4 4 5 5 4 4 3 4 3 2 2 2 1 1 1
7 7 6 4 4 7 8 7 8 12 13 13 14 14 14 13 13 12 12 11 11 11 11 11 10 9 8 6 6 5 5 5 4 4 5 5 5 5 5 3 3 3 3 3 3 2 3 2 2
10 10 8 5 4 6 6 7 7 11 13 13 14 15 15 14 13 13 13 13 13 12 12 12 11 10 9 7 5 4 3 4 3 3 3 4 5 5 5 4 4 3 3 4 4 3 3 2 3
12 11 9 6 5 7 7 8 9 10 12 12 13 14 14 14 15 15 14 14 14 13 13 12 12 11 10 9 6 5 4 4 4 4 3 4 4 4 4 4 4 4 4 4 4 4 5 4 3
13 10 9 8 8 7 8 7 8 10 11 13 14 14 14 14 14 14 15 15 15 14 13 12 12 11 11 10 8 8 6 5 4 4 3 3 4 4 5 4 4 4 4 4 5 5 5 5 4
11 7 9 10 10 10 9 9 6 9 10 12 13 13 13 14 14 15 15 15 14 14 13 13 12 11 11 10 9 9 7 5 4 4 4 4 4 5 5 5 5 5 4 4 4 4 6 5 5
8 7 7 10 11 13 11 11 8 7 8 9 10 11 12 13 13 14 14 13 13 13 13 12 12 12 11 11 10 10 8 7 5 5 5 5 4 4 5 5 5 5 4 5 5 5 6 5 5
12 12 10 11 12 12 8 10 8 4 4 6 7 9 11 11 12 12 13 13 13 13 12 12 12 12 12 11 10 9 8 8 8 7 6 5 5 4 5 5 5 5 5 5 5 5 5 6 6
16 17 15 12 12 10 9 10 8 4 3 5 5 6 8 10 11 11 12 12 12 13 13 13 13 12 11 10 9 8 8 7 6 6 6 5 4 4 4 5 5 5 6 6 5 5 6 6 6
16 17 16 15 14 13 9 9 9 7 7 6 6 6 7 9 9 10 10 11 12 12 12 12 12 12 11 10 9 8 8 7 6 6 6 5 5 4 5 5 5 5 6 6 6 5 5 6 6
12 13 11 13 13 14 12 13 10 9 9 7 6 7 7 7 8 8 9 10 10 10 10 11 11 11 11 10 9 8 8 7 6 6 6 5 5 5 6 6 6 6 6 6 6 6 6 7 6
12 13 12 13 13 13 13 9 5 6 7 7 7 7 7 7 7 7 7 8 8 9 10 10 10 10 10 9 9 8 7 7 6 6 6 6 6 6 6 6 6 6 7 6 6 7 7 8 7
13 14 14 13 12 13 14 8 2 3 5 5 5 5 6 6 6 6 7 7 8 8 9 9 9 10 9 9 9 8 7 7 7 6 6 6 6 6 7 7 7 7 7 7 7 8 8 8 8
Wind_Direction
165 175 206 234 177 73 66 64 69 75 75 70 71 65 64 48 45 84 104 109 108 106 105 111 104 105 105 104 105 106 105 107 108 109 108 109 108 108 108 108 109 111 114 116 115 114 115 116 115
167 182 227 243 62 73 68 65 70 70 86 96 83 76 74 66 66 101 115 114 118 109 109 104 105 106 105 104 105 105 106 107 107 107 109 110 110 111 111 111 111 113 115 118 119 118 117 118 117
176 223 268 59 59 63 71 73 82 90 95 92 86 67 61 75 89 105 114 127 120 106 107 106 109 106 106 105 104 102 104 108 108 109 111 113 113 115 115 115 116 116 118 119 120 120 120 119 119
207 225 209 68 69 66 75 86 98 101 91 83 96 88 78 74 89 109 121 129 117 112 111 108 109 107 107 105 105 104 103 107 111 111 111 113 113 114 115 116 117 118 118 118 120 122 121 120 121
244 260 80 75 73 74 78 87 94 85 85 94 97 98 91 85 101 116 125 125 118 113 109 110 111 109 108 108 107 108 106 107 111 112 111 111 114 113 116 117 117 119 118 116 119 121 122 122 124
249 27 67 75 79 82 88 96 92 90 98 103 107 105 94 112 118 122 124 121 116 115 112 112 118 112 112 111 110 109 106 106 106 107 111 112 115 116 119 119 118 120 119 118 120 122 122 122 124
342 52 69 75 86 89 89 95 93 101 107 107 113 107 116 125 125 127 123 121 118 116 115 119 125 124 123 117 113 112 108 107 107 108 111 113 115 117 120 118 121 122 122 123 123 124 124 123 125
308 58 77 74 79 88 107 106 91 97 99 113 120 116 132 136 137 133 130 126 119 116 115 119 121 121 131 129 122 116 114 113 114 113 117 120 124 124 126 128 121 123 126 126 127 129 129 128 127
261 66 71 71 76 100 124 121 108 104 117 116 97 103 127 137 142 141 138 134 132 127 123 123 122 124 124 125 125 129 127 125 132 129 132 146 142 133 136 115 118 124 128 129 130 135 136 139 140
267 62 69 69 86 111 130 126 130 136 132 126 118 117 131 144 151 151 147 146 144 140 136 127 127 131 129 123 126 134 135 130 133 124 134 138 124 124 119 115 119 123 130 135 136 146 159 177 154
73 67 79 92 107 122 132 133 141 142 139 146 146 144 149 154 158 157 152 149 144 144 143 142 138 132 130 129 132 129 128 129 129 117 122 124 135 137 136 137 140 143 150 148 146 170 169 159 134
125 93 96 104 125 134 132 134 140 133 101 135 148 151 156 161 164 164 159 153 150 152 153 150 144 142 141 130 131 141 140 136 129 126 142 139 141 138 134 145 144 151 146 136 151 155 151 144 149
156 116 112 123 141 136 136 135 129 129 122 138 147 156 162 166 166 166 161 161 161 166 165 161 157 156 156 155 166 144 141 138 132 135 144 148 149 148 145 147 153 157 139 150 167 169 157 169 180
137 136 133 140 141 150 150 143 146 135 144 148 156 164 168 171 171 169 173 175 176 178 176 172 176 173 173 172 168 158 156 153 152 152 149 167 166 154 162 162 163 157 152 156 168 177 180 191 189
164 156 146 151 161 166 169 169 164 148 155 160 166 170 172 176 177 180 182 184 182 184 184 183 185 183 185 184 180 174 175 169 166 157 157 180 183 167 182 171 167 158 157 157 185 183 194 201 192
193 201 190 163 178 180 212 169 150 160 167 170 173 176 180 183 186 185 185 186 184 186 188 193 195 188 189 192 194 186 180 174 176 179 178 190 193 187 199 189 175 176 186 183 182 191 194 195 196
210 220 210 165 189 192 221 192 151 171 178 178 181 184 187 188 195 191 190 189 187 190 192 193 200 197 196 192 196 197 192 195 193 195 194 194 199 196 200 201 182 202 205 199 212 177 200 194 195
221 231 223 205 188 209 222 214 168 182 188 188 188 190 193 195 197 195 195 192 190 192 194 195 195 198 198 195 194 201 203 202 204 206 204 203 202 198 204 202 196 210 206 201 209 203 197 205 207
243 245 236 219 189 219 230 229 194 187 195 196 196 198 201 203 197 193 195 194 195 195 196 197 199 193 195 197 200 198 203 207 207 209 205 209 212 207 209 216 200 210 210 209 207 206 202 207 204
231 233 231 210 193 230 239 235 212 197 204 204 202 203 206 203 197 195 196 196 198 197 197 196 199 196 197 196 203 209 208 204 203 206 201 221 220 219 212 210 216 209 208 213 219 216 228 224 208
228 236 236 222 199 218 240 230 214 205 209 210 212 212 210 206 201 196 197 199 199 199 199 198 197 195 198 195 194 191 192 203 195 201 203 214 218 219 225 216 225 224 222 219 220 220 226 233 228
227 228 236 226 224 228 231 252 212 204 206 211 214 213 212 207 205 200 199 200 200 199 197 196 194 194 193 195 200 200 206 209 203 204 198 200 206 212 216 218 222 226 222 218 223 218 225 230 228
232 220 224 231 240 251 231 254 237 196 215 214 212 212 210 205 203 200 199 199 199 196 193 191 190 191 192 197 200 208 215 210 203 199 195 209 205 209 216 220 222 222 220 220 226 225 227 226 228
195 192 208 228 239 242 241 250 251 223 227 222 209 207 205 203 201 199 198 195 195 193 191 188 186 190 192 197 203 211 214 211 206 205 208 213 210 209 210 215 221 222 222 218 219 220 220 227 232
203 213 221 226 230 238 229 244 252 260 242 236 217 202 198 196 196 195 194 191 191 190 189 186 184 187 190 196 203 208 215 213 210 214 213 220 220 217 214 220 221 224 221 220 216 214 223 224 228
214 226 233 240 243 236 213 237 244 243 230 231 219 199 189 188 190 192 191 190 188 188 187 185 184 186 187 192 199 204 210 216 214 214 219 220 226 228 217 219 223 226 224 222 215 220 219 224 227
216 228 241 247 254 256 236 236 239 228 221 216 203 188 185 182 183 185 184 187 186 185 185 185 183 183 184 188 191 197 206 214 213 211 219 223 222 223 217 221 224 229 229 226 220 222 225 225 225
238 229 231 238 241 248 241 237 236 217 212 205 196 186 179 172 174 175 177 182 183 183 182 184 184 185 185 187 194 195 198 201 206 217 220 224 223 224 222 224 226 229 230 228 226 222 219 220 223
206 217 229 236 245 249 252 241 228 221 222 210 198 182 169 168 166 166 166 170 174 175 177 180 183 185 186 187 189 191 193 193 198 209 214 216 221 220 222 224 226 228 231 231 229 230 226 224 224
221 223 223 231 235 246 262 255 156 205 212 203 186 164 157 156 155 154 156 160 166 169 171 174 179 185 186 185 184 187 189 190 196 203 209 211 216 221 222 224 226 228 228 226 226 229 229 228 227
Height
1493 1492 1493 1495 1487 1487 1496 1496 1494 1497 1501 1505 1506 1506 1507 1509 1511 1521 1524 1523 1523 1523 1522 1521 1521 1522 1523 1524 1524 1525 1525 1525 1526 1527 1528 1529 1529 1530 1530 1531 1532 1533 1534 1536 1537 1539 1540 1542 1543
1494 1494 1496 1491 1484 1497 1503 1497 1499 1502 1506 1508 1509 1509 1510 1514 1518 1522 1523 1524 1525 1525 1525 1524 1523 1524 1525 1525 1526 1527 1527 1528 1528 1529 1530 1531 1531 1532 1532 1532 1533 1534 1535 1537 1539 1541 1542 1544 1546
1495 1496 1495 1484 1489 1499 1504 1500 1502 1505 1508 1509 1510 1512 1514 1519 1522 1524 1525 1526 1527 1527 1527 1526 1526 1527 1527 1528 1529 1529 1530 1530 1531 1531 1532 1532 1533 1533 1533 1534 1534 1535 1537 1539 1540 1542 1544 1546 1548
1498 1497 1492 1487 1496 1498 1498 1501 1504 1506 1509 1510 1511 1514 1519 1523 1524 1526 1526 1528 1529 1530 1530 1528 1528 1529 1529 1530 1531 1531 1532 1532 1533 1533 1534 1534 1534 1534 1535 1535 1536 1537 1539 1540 1542 1544 1546 1548 1550
1498 1493 1486 1492 1497 1498 1500 1503 1505 1505 1508 1511 1512 1516 1522 1526 1526 1527 1529 1530 1531 1532 1533 1531 1530 1531 1532 1532 1533 1533 1534 1534 1535 1535 1535 1536 1536 1536 1536 1537 1537 1539 1540 1542 1544 1546 1548 1551 1552
1496 1487 1489 1498 1501 1500 1502 1505 1506 1507 1511 1514 1515 1517 1524 1528 1529 1530 1531 1532 1533 1534 1535 1533 1533 1533 1534 1534 1535 1535 1536 1536 1536 1537 1537 1537 1537 1538 1538 1539 1539 1541 1542 1544 1546 1548 1551 1553 1554
1495 1486 1491 1494 1499 1501 1503 1506 1506 1508 1511 1515 1516 1518 1525 1529 1530 1531 1533 1534 1535 1536 1537 1536 1536 1535 1536 1536 1537 1537 1538 1538 1538 1538 1538 1539 1539 1540 1540 1541 1542 1544 1545 1547 1548 1550 1553 1555 1556
1496 1488 1490 1493 1497 1501 1504 1507 1509 1510 1514 1518 1519 1519 1525 1530 1531 1533 1534 1535 1536 1537 1538 1538 1539 1539 1539 1539 1539 1539 1539 1539 1539 1539 1540 1540 1541 1541 1542 1544 1545 1546 1548 1549 1551 1553 1554 1556 1558
1496 1489 1493 1494 1497 1500 1504 1507 1512 1514 1516 1519 1520 1521 1525 1529 1532 1534 1535 1536 1537 1538 1539 1540 1540 1540 1541 1542 1541 1541 1541 1541 1541 1540 1540 1542 1544 1545 1545 1547 1547 1548 1550 1551 1553 1554 1556 1558 1559
1492 1490 1494 1494 1495 1498 1504 1506 1511 1513 1515 1519 1522 1525 1527 1530 1532 1534 1536 1537 1538 1539 1540 1540 1541 1542 1543 1543 1543 1544 1544 1543 1543 1543 1543 1545 1546 1547 1548 1548 1549 1550 1552 1553 1554 1556 1557 1560 1562
1491 1491 1493 1495 1497 1500 1503 1507 1510 1511 1512 1517 1521 1525 1528 1531 1533 1535 1536 1538 1539 1540 1541 1541 1542 1542 1543 1544 1545 1545 1545 1544 1544 1544 1545 1546 1548 1549 1550 1551 1551 1552 1553 1555 1555 1557 1560 1562 1563
1493 1493 1495 1496 1499 1501 1503 1506 1509 1510 1513 1517 1521 1524 1528 1531 1533 1535 1537 1538 1540 1541 1541 1542 1542 1542 1543 1545 1546 1546 1547 1547 1547 1546 1547 1548 1550 1551 1552 1552 1554 1555 1555 1556 1558 1559 1561 1562 1563
1492 1494 1496 1498 1500 1501 1504 1506 1509 1512 1516 1518 1522 1525 1528 1531 1533 1535 1537 1539 1540 1541 1542 1542 1543 1543 1543 1544 1546 1547 1547 1548 1548 1548 1549 1549 1551 1551 1552 1553 1554 1555 1556 1557 1558 1560 1561 1562 1563
1493 1494 1496 1498 1500 1503 1504 1506 1509 1513 1517 1519 1522 1525 1528 1530 1532 1535 1536 1538 1540 1541 1542 1543 1543 1543 1544 1545 1546 1547 1548 1548 1549 1550 1550 1550 1551 1552 1553 1554 1554 1556 1557 1558 1559 1560 1561 1562 1564
1494 1494 1496 1498 1500 1501 1503 1505 1507 1512 1516 1519 1522 1525 1527 1530 1532 1534 1536 1537 1539 1540 1542 1542 1543 1544 1544 1545 1546 1548 1548 1549 1550 1551 1550 1551 1552 1552 1553 1554 1555 1556 1557 1558 1559 1560 1561 1562 1563
1490 1491 1495 1496 1498 1500 1503 1504 1505 1511 1514 1518 1521 1524 1527 1529 1531 1533 1535 1536 1538 1540 1541 1542 1544 1544 1545 1545 1546 1548 1549 1549 1550 1550 1551 1551 1552 1553 1553 1555 1556 1556 1558 1559 1560 1560 1561 1562 1563
1489 1492 1493 1495 1496 1497 1498 1499 1504 1509 1512 1515 1519 1522 1525 1527 1530 1531 1533 1535 1536 1538 1539 1541 1542 1543 1544 1545 1546 1547 1548 1549 1549 1550 1551 1551 1552 1553 1553 1555 1556 1557 1558 1559 1560 1560 1561 1561 1561
1492 1490 1491 1493 1492 1494 1496 1495 1501 1506 1509 1512 1516 1519 1522 1524 1527 1529 1531 1533 1535 1536 1538 1540 1541 1542 1543 1545 1545 1546 1547 1548 1549 1550 1550 1551 1552 1552 1553 1554 1555 1556 1557 1557 1558 1558 1559 1560 1560
1484 1488 1491 1489 1489 1492 1494 1494 1496 1502 1506 1509 1513 1516 1519 1521 1524 1527 1529 1531 1533 1534 1536 1538 1539 1541 1542 1543 1545 1546 1547 1548 1549 1549 1550 1550 1551 1552 1552 1554 1554 1555 1555 1556 1557 1557 1558 1559 1559
1486 1490 1489 1488 1489 1492 1492 1492 1492 1498 1502 1505 1508 1511 1514 1518 1521 1524 1526 1528 1530 1532 1534 1536 1537 1539 1541 1542 1543 1545 1546 1547 1548 1548 1548 1549 1550 1551 1552 1552 1552 1553 1553 1554 1555 1556 1557 1557 1558
1486 1486 1486 1489 1490 1490 1492 1494 1492 1493 1498 1502 1505 1507 1510 1513 1516 1520 1522 1525 1527 1529 1531 1533 1535 1537 1539 1541 1543 1544 1544 1546 1546 1547 1547 1548 1548 1549 1550 1550 1551 1551 1552 1553 1553 1553 1554 1555 1556
1486 1480 1483 1487 1492 1491 1492 1498 1488 1487 1492 1496 1499 1502 1505 1509 1512 1515 1519 1521 1524 1526 1529 1531 1533 1535 1537 1539 1541 1542 1543 1545 1545 1546 1546 1546 1547 1547 1548 1549 1549 1549 1550 1550 1551 1551 1552 1553 1554
1478 1478 1482 1485 1488 1490 1489 1494 1486 1483 1487 1489 1492 1496 1500 1504 1508 1511 1515 1518 1521 1523 1526 1528 1530 1532 1535 1537 1539 1540 1542 1543 1544 1544 1545 1545 1545 1546 1546 1547 1547 1547 1547 1548 1548 1549 1549 1550 1551
1479 1482 1484 1484 1485 1499 1490 1493 1491 1478 1481 1482 1486 1492 1496 1500 1504 1508 1511 1515 1518 1520 1523 1525 1527 1529 1532 1534 1536 1538 1539 1540 1541 1542 1543 1544 1544 1544 1544 1545 1545 1545 1545 1545 1545 1546 1547 1548 1548
1479 1486 1497 1501 1499 1495 1483 1490 1485 1474 1476 1479 1482 1487 1492 1496 1500 1504 1507 1511 1513 1516 1519 1522 1524 1526 1529 1531 1533 1535 1537 1538 1539 1540 1541 1541 1542 1543 1542 1543 1542 1542 1542 1543 1543 1543 1544 1544 1545
1475 1477 1492 1504 1500 1488 1487 1488 1477 1473 1477 1479 1482 1485 1489 1492 1496 1500 1503 1506 1509 1512 1515 1518 1520 1523 1525 1528 1530 1532 1533 1535 1536 1537 1538 1539 1540 1540 1540 1540 1540 1540 1540 1540 1540 1541 1541 1542 1542
1473 1472 1466 1477 1482 1487 1481 1478 1472 1472 1475 1477 1480 1483 1486 1490 1493 1496 1499 1503 1506 1509 1511 1514 1517 1520 1522 1525 1527 1528 1530 1532 1534 1534 1535 1536 1537 1537 1537 1537 1537 1537 1537 1537 1538 1538 1538 1539 1539
1465 1465 1471 1477 1495 1498 1486 1481 1475 1471 1472 1474 1477 1480 1484 1488 1491 1494 1496 1500 1503 1506 1509 1511 1514 1516 1519 1522 1524 1526 1527 1529 1530 1531 1532 1533 1533 1534 1534 1534 1534 1534 1534 1534 1535 1535 1535 1536 1536
1470 1471 1470 1471 1474 1489 1491 1478 1459 1465 1468 1472 1475 1479 1483 1486 1489 1491 1494 1497 1500 1503 1506 1508 1511 1513 1516 1518 1521 1523 1524 1525 1527 1528 1529 1529 1530 1530 1530 1531 1531 1531 1531 1531 1531 1532 1532 1532 1533
1459 1463 1468 1478 1481 1477 1479 1474 1460 1464 1467 1471 1475 1479 1483 1486 1488 1490 1492 1495 1498 1501 1503 1505 1508 1511 1513 1515 1517 1519 1521 1522 1523 1524 1525 1526 1526 1527 1527 1527 1527 1527 1527 1527 1527 1528 1529 1529 1529